KS5S Weather Reports


Display with metric or nautical units.
time (UTC)temp
F
wind
direction
speed
MPH
gust
MPH
rain 1hr
in
rain 24hr
in
rain mn
in
humidity
%
barometer
mb
20260906224737 100 89 4.0 13.0 0.00 0.00 0.00 41 1008.9
20260906224233 100 123 3.0 7.0 0.00 0.00 0.00 40 1008.9
20260906223730 100 165 2.0 8.0 0.00 0.00 0.00 40 1008.8
20260906223225 101 154 2.0 7.0 0.00 0.00 0.00 40 1008.9
20260906222723 100 60 3.0 14.0 0.00 0.00 0.00 40 1008.7
20260906222222 100 140 4.0 10.0 0.00 0.00 0.00 40 1008.8
20260906221720 100 102 6.0 8.0 0.00 0.00 0.00 41 1008.8
20260906221215 98 133 3.0 9.0 0.00 0.00 0.00 43 1009.0
20260906220710 99 140 4.0 8.0 0.00 0.00 0.00 42 1009.0
20260906220205 100 105 2.0 14.0 0.00 0.00 0.00 41 1009.0
20260906215704 99 127 5.0 11.0 0.00 0.00 0.00 41 1009.1
20260906215203 100 188 3.0 5.0 0.00 0.00 0.00 39 1009.1
20260906214701 101 93 8.0 11.0 0.00 0.00 0.00 38 1009.2
20260906214156 100 44 9.0 12.0 0.00 0.00 0.00 39 1009.0
20260906213656 101 112 4.0 9.0 0.00 0.00 0.00 39 1009.1
20260906213150 99 71 3.0 6.0 0.00 0.00 0.00 41 1009.2
20260906212648 101 113 8.0 15.0 0.00 0.00 0.00 40 1009.3
20260906212143 101 23 5.0 10.0 0.00 0.00 0.00 39 1009.3
20260906211642 100 48 5.0 9.0 0.00 0.00 0.00 39 1009.3
20260906211137 100 124 3.0 15.0 0.00 0.00 0.00 41 1009.3
20260906210633 101 51 6.0 10.0 0.00 0.00 0.00 40 1009.5
20260906210128 100 86 8.0 8.0 0.00 0.00 0.00 41 1009.6
20260906205624 99 14 3.0 12.0 0.00 0.00 0.00 41 1009.5
20260906205120 100 211 2.0 5.0 0.00 0.00 0.00 40 1009.6
20260906204619 100 122 2.0 9.0 0.00 0.00 0.00 41 1009.6
20260906204114 101 107 5.0 10.0 0.00 0.00 0.00 40 1009.6
20260906203613 100 79 4.0 15.0 0.00 0.00 0.00 42 1009.8
20260906203103 100 111 9.0 13.0 0.00 0.00 0.00 41 1009.6
20260906202559 100 184 4.0 9.0 0.00 0.00 0.00 41 1009.7
20260906202100 100 87 6.0 13.0 0.00 0.00 0.00 41 1009.7
20260906201559 100 272 1.0 6.0 0.00 0.00 0.00 41 1009.9
20260906201053 100 160 5.0 8.0 0.00 0.00 0.00 41 1010.1
20260906200549 99 111 7.0 13.0 0.00 0.00 0.00 42 1010.0
20260906200045 100 128 6.0 9.0 0.00 0.00 0.00 41 1010.2
20260906195541 98 197 4.0 10.0 0.00 0.00 0.00 43 1010.4
20260906195037 99 154 6.0 10.0 0.00 0.00 0.00 43 1010.4
20260906194533 99 170 6.0 8.0 0.00 0.00 0.00 42 1010.4
20260906194028 99 91 3.0 9.0 0.00 0.00 0.00 43 1010.3
20260906193528 98 78 4.0 7.0 0.00 0.00 0.00 44 1010.4
20260906193023 99 148 5.0 13.0 0.00 0.00 0.00 44 1010.3
20260906192519 99 139 3.0 10.0 0.00 0.00 0.00 42 1010.4
20260906192017 100 123 3.0 7.0 0.00 0.00 0.00 43 1010.6
20260906191513 99 145 5.0 9.0 0.00 0.00 0.00 44 1010.6
20260906191012 99 151 5.0 8.0 0.00 0.00 0.00 43 1010.7
20260906190511 98 155 2.0 11.0 0.00 0.00 0.00 43 1010.6
20260906190007 97 148 1.0 11.0 0.00 0.00 0.00 45 1010.6
20260906185505 98 178 3.0 11.0 0.00 0.00 0.00 44 1010.7
20260906185004 98 145 4.0 11.0 0.00 0.00 0.00 45 1010.8
20260906184459 98 64 4.0 12.0 0.00 0.00 0.00 45 1010.8
20260906183954 98 164 6.0 10.0 0.00 0.00 0.00 44 1010.9
20260906183450 97 92 0.0 6.0 0.00 0.00 0.00 47 1011.0
20260906182946 98 164 7.0 12.0 0.00 0.00 0.00 45 1011.0
20260906182436 98 112 3.0 8.0 0.00 0.00 0.00 46 1011.1
20260906181932 98 39 9.0 10.0 0.00 0.00 0.00 46 1011.2
20260906181427 98 73 3.0 6.0 0.00 0.00 0.00 47 1011.4
20260906180923 97 128 3.0 8.0 0.00 0.00 0.00 47 1011.3
20260906180418 98 191 11.0 11.0 0.00 0.00 0.00 46 1011.4
20260906175915 98 167 3.0 13.0 0.00 0.00 0.00 47 1011.4
20260906175410 96 286 0.0 9.0 0.00 0.00 0.00 46 1011.7
20260906174909 97 145 7.0 10.0 0.00 0.00 0.00 46 1011.9
20260906174409 97 145 7.0 10.0 0.00 0.00 0.00 46 1011.9
20260906173903 96 197 1.0 5.0 0.00 0.00 0.00 50 1011.9
20260906173359 94 19 0.0 5.0 0.00 0.00 0.00 52 1012.1
20260906172858 94 342 2.0 3.0 0.00 0.00 0.00 53 1012.1
20260906172355 94 110 4.0 8.0 0.00 0.00 0.00 52 1012.1
20260906171849 95 151 3.0 10.0 0.00 0.00 0.00 52 1012.3
20260906171344 97 101 2.0 5.0 0.00 0.00 0.00 50 1012.2
20260906170840 95 124 0.0 4.0 0.00 0.00 0.00 52 1012.6
20260906170336 94 106 7.0 7.0 0.00 0.00 0.00 53 1012.6
20260906165832 93 31 0.0 10.0 0.00 0.00 0.00 55 1012.7
20260906165330 94 151 5.0 9.0 0.00 0.00 0.00 54 1012.6
20260906164826 95 272 2.0 4.0 0.00 0.00 0.00 53 1012.5
20260906164325 94 151 7.0 10.0 0.00 0.00 0.00 54 1012.8
20260906163821 93 106 3.0 9.0 0.00 0.00 0.00 56 1012.6
20260906163317 94 122 5.0 7.0 0.00 0.00 0.00 55 1012.7
20260906162815 94 17 3.0 6.0 0.00 0.00 0.00 56 1012.6
20260906162314 94 103 6.0 9.0 0.00 0.00 0.00 56 1012.6
20260906161809 93 165 4.0 8.0 0.00 0.00 0.00 59 1012.4
20260906161309 92 101 3.0 9.0 0.00 0.00 0.00 59 1012.8
20260906160807 93 104 3.0 6.0 0.00 0.00 0.00 60 1012.6
20260906160302 92 68 3.0 9.0 0.00 0.00 0.00 61 1012.7
20260906155759 92 59 3.0 7.0 0.00 0.00 0.00 61 1012.5
20260906155254 92 47 3.0 7.0 0.00 0.00 0.00 62 1012.6
20260906154750 91 354 3.0 7.0 0.00 0.00 0.00 64 1012.7
20260906154245 91 354 3.0 7.0 0.00 0.00 0.00 64 1012.7
20260906153743 92 287 1.0 4.0 0.00 0.00 0.00 64 1012.6
20260906153237 91 160 3.0 7.0 0.00 0.00 0.00 64 1012.6
20260906152733 91 77 2.0 4.0 0.00 0.00 0.00 64 1012.6
20260906152227 90 95 2.0 4.0 0.00 0.00 0.00 65 1012.5
20260906151727 90 320 3.0 7.0 0.00 0.00 0.00 67 1012.4
20260906151223 90 123 2.0 5.0 0.00 0.00 0.00 66 1012.6
20260906150718 89 173 3.0 6.0 0.00 0.00 0.00 68 1012.7
20260906150213 90 167 2.0 4.0 0.00 0.00 0.00 67 1012.5
20260906145712 89 93 2.0 3.0 0.00 0.00 0.00 68 1012.3
20260906145212 90 260 2.0 4.0 0.00 0.00 0.00 67 1012.3
20260906144706 89 83 1.0 4.0 0.00 0.00 0.00 69 1012.4
20260906144202 88 89 0.0 2.0 0.00 0.00 0.00 70 1012.4
20260906143701 88 255 0.0 3.0 0.00 0.00 0.00 71 1012.5
20260906143158 89 155 1.0 3.0 0.00 0.00 0.00 70 1012.5
20260906142658 87 328 0.0 4.0 0.00 0.00 0.00 73 1012.5
20260906142153 86 106 0.0 5.0 0.00 0.00 0.00 73 1012.3
20260906141652 87 224 1.0 3.0 0.00 0.00 0.00 74 1012.5
20260906141147 86 75 1.0 2.0 0.00 0.00 0.00 74 1012.5
20260906140646 86 180 1.0 2.0 0.00 0.00 0.00 75 1012.3
20260906140141 85 65 0.0 3.0 0.00 0.00 0.00 76 1012.4
20260906135638 84 302 0.0 4.0 0.00 0.00 0.00 78 1012.4
20260906135134 83 184 2.0 5.0 0.00 0.00 0.00 80 1012.1
20260906134630 83 114 1.0 5.0 0.00 0.00 0.00 80 1012.4
20260906134124 83 76 2.0 5.0 0.00 0.00 0.00 80 1012.2
20260906133620 83 104 2.0 4.0 0.00 0.00 0.00 80 1012.1
20260906133115 83 123 0.0 3.0 0.00 0.00 0.00 81 1012.3
20260906132610 82 95 0.0 4.0 0.00 0.00 0.00 82 1012.2
20260906132106 81 124 1.0 7.0 0.00 0.00 0.00 84 1012.1
20260906131601 80 104 3.0 6.0 0.00 0.00 0.00 84 1012.0
20260906131056 80 26 1.0 4.0 0.00 0.00 0.00 84 1011.9
20260906130555 80 79 2.0 4.0 0.00 0.00 0.00 84 1012.0
20260906130051 80 70 1.0 2.0 0.00 0.00 0.00 84 1011.9
20260906125548 80 128 1.0 3.0 0.00 0.00 0.00 85 1011.9
20260906125042 79 66 2.0 3.0 0.00 0.00 0.00 86 1012.0
20260906124538 79 91 2.0 3.0 0.00 0.00 0.00 87 1011.8
20260906124032 78 60 0.0 3.0 0.00 0.00 0.00 88 1011.9
20260906123532 78 77 1.0 3.0 0.00 0.00 0.00 88 1011.7
20260906123027 77 95 1.0 4.0 0.00 0.00 0.00 89 1011.8
20260906122521 77 103 2.0 4.0 0.00 0.00 0.00 89 1012.0
20260906122017 77 16 0.0 2.0 0.00 0.00 0.00 90 1011.7
20260906121513 77 23 0.0 2.0 0.00 0.00 0.00 90 1011.5
20260906121009 77 74 0.0 2.0 0.00 0.00 0.00 90 1011.5
20260906120504 77 44 0.0 2.0 0.00 0.00 0.00 90 1011.3
20260906120002 77 34 0.0 2.0 0.00 0.00 0.00 90 1011.4
20260906115455 77 82 0.0 2.0 0.00 0.00 0.00 90 1011.5
20260906114950 77 124 1.0 2.0 0.00 0.00 0.00 90 1011.3
20260906114445 77 55 0.0 2.0 0.00 0.00 0.00 89 1011.3
20260906113941 77 74 0.0 2.0 0.00 0.00 0.00 89 1011.3
20260906113439 77 109 1.0 2.0 0.00 0.00 0.00 89 1011.3
20260906112935 77 137 0.0 1.0 0.00 0.00 0.00 89 1011.3
20260906112430 77 142 0.0 1.0 0.00 0.00 0.00 89 1011.3
20260906111926 77 57 0.0 2.0 0.00 0.00 0.00 89 1011.1
20260906111425 77 50 0.0 2.0 0.00 0.00 0.00 88 1011.1
20260906110920 77 68 0.0 1.0 0.00 0.00 0.00 88 1011.2
20260906110416 77 75 0.0 3.0 0.00 0.00 0.00 88 1011.1
20260906105915 78 93 2.0 2.0 0.00 0.00 0.00 87 1011.1
20260906105411 78 62 0.0 2.0 0.00 0.00 0.00 87 1011.1
20260906104907 78 50 0.0 2.0 0.00 0.00 0.00 87 1010.8
20260906104405 78 55 0.0 2.0 0.00 0.00 0.00 87 1010.9
20260906103904 78 75 1.0 2.0 0.00 0.00 0.00 87 1010.9
20260906103402 78 57 2.0 2.0 0.00 0.00 0.00 87 1011.0
20260906102858 78 309 0.0 0.0 0.00 0.00 0.00 87 1010.6
20260906102357 78 62 0.0 0.0 0.00 0.00 0.00 87 1010.9
20260906101852 78 75 0.0 1.0 0.00 0.00 0.00 86 1010.9
20260906101347 78 62 0.0 2.0 0.00 0.00 0.00 86 1010.6
20260906100843 78 230 0.0 0.0 0.00 0.00 0.00 85 1010.5
20260906100342 78 284 0.0 1.0 0.00 0.00 0.00 85 1010.4
20260906095837 79 223 2.0 2.0 0.00 0.00 0.00 85 1010.3
20260906095333 78 236 1.0 3.0 0.00 0.00 0.00 85 1010.1
20260906094832 78 245 1.0 2.0 0.00 0.00 0.00 85 1010.5
20260906094326 78 217 0.0 2.0 0.00 0.00 0.00 86 1010.3
20260906093823 78 297 0.0 2.0 0.00 0.00 0.00 86 1010.4
20260906093313 78 305 0.0 1.0 0.00 0.00 0.00 86 1010.2
20260906092808 79 189 0.0 2.0 0.00 0.00 0.00 85 1010.2
20260906092305 79 157 0.0 2.0 0.00 0.00 0.00 85 1010.0
20260906091758 79 217 1.0 2.0 0.00 0.00 0.00 84 1010.2
20260906091254 79 192 1.0 2.0 0.00 0.00 0.00 84 1010.4
20260906090750 79 186 0.0 2.0 0.00 0.00 0.00 84 1010.1
20260906090248 79 193 1.0 2.0 0.00 0.00 0.00 84 1010.2
20260906085748 79 214 0.0 2.0 0.00 0.00 0.00 84 1010.2
20260906085242 79 179 1.0 2.0 0.00 0.00 0.00 84 1010.3
20260906084737 79 229 0.0 1.0 0.00 0.00 0.00 84 1010.2
20260906084236 79 299 0.0 1.0 0.00 0.00 0.00 84 1010.3
20260906083732 79 297 0.0 2.0 0.00 0.00 0.00 83 1010.5
20260906083227 80 230 0.0 1.0 0.00 0.00 0.00 83 1010.3
20260906082721 80 199 0.0 1.0 0.00 0.00 0.00 82 1010.4
20260906082211 80 205 0.0 2.0 0.00 0.00 0.00 82 1010.4
20260906081707 80 239 1.0 2.0 0.00 0.00 0.00 82 1010.3
20260906081202 80 205 1.0 2.0 0.00 0.00 0.00 82 1010.2
20260906080659 80 250 0.0 3.0 0.00 0.00 0.00 82 1010.4
20260906080154 80 196 2.0 4.0 0.00 0.00 0.00 81 1010.2
20260906075654 81 282 0.0 5.0 0.00 0.00 0.00 81 1010.2
20260906075149 81 224 0.0 2.0 0.00 0.00 0.00 81 1010.5
20260906074644 81 197 0.0 3.0 0.00 0.00 0.00 81 1010.4
20260906074143 81 202 0.0 3.0 0.00 0.00 0.00 80 1010.3
20260906073638 81 201 0.0 3.0 0.00 0.00 0.00 80 1010.4
20260906073134 81 186 1.0 3.0 0.00 0.00 0.00 80 1010.4
20260906072629 82 293 0.0 2.0 0.00 0.00 0.00 79 1010.6
20260906072125 82 186 2.0 3.0 0.00 0.00 0.00 79 1010.8
20260906071621 82 117 0.0 6.0 0.00 0.00 0.00 79 1010.8
20260906071120 82 157 0.0 3.0 0.00 0.00 0.00 79 1010.6
20260906070612 82 184 1.0 5.0 0.00 0.00 0.00 78 1010.8
20260906070107 82 176 4.0 5.0 0.00 0.00 0.00 78 1010.6
20260906065607 82 189 2.0 6.0 0.00 0.00 0.00 78 1010.8
20260906065102 82 155 3.0 5.0 0.00 0.00 0.00 77 1010.8
20260906064557 83 195 2.0 4.0 0.00 0.00 0.00 77 1010.9
20260906064052 83 194 3.0 7.0 0.00 0.00 0.00 77 1010.9
20260906063547 83 185 0.0 6.0 0.00 0.00 0.00 77 1011.1
20260906063043 83 251 1.0 5.0 0.00 0.00 0.00 76 1011.2
20260906062538 83 223 3.0 4.0 0.00 0.00 0.00 76 1011.1
20260906062032 84 173 3.0 6.0 0.00 0.00 0.00 76 1011.1
20260906061529 84 158 4.0 7.0 0.00 0.00 0.00 76 1011.2
20260906061028 84 183 2.0 5.0 0.00 0.00 0.00 76 1011.3
20260906060525 84 190 2.0 5.0 0.00 0.00 0.00 76 1011.0
20260906060021 84 183 1.0 4.0 0.00 0.00 0.00 76 1011.1
20260906055518 83 198 2.0 3.0 0.00 0.00 0.00 76 1011.2
20260906055013 83 189 2.0 3.0 0.00 0.00 0.00 76 1011.1
20260906054513 84 202 1.0 2.0 0.00 0.00 0.00 76 1011.0
20260906054008 83 213 0.0 3.0 0.00 0.00 0.00 76 1010.7
20260906053504 83 213 0.0 3.0 0.00 0.00 0.00 76 1010.7
20260906053000 83 230 0.0 1.0 0.00 0.00 0.00 76 1010.9
20260906052455 84 248 1.0 2.0 0.00 0.00 0.00 75 1010.8
20260906051952 84 152 1.0 3.0 0.00 0.00 0.00 75 1011.0
20260906051447 84 210 0.0 2.0 0.00 0.00 0.00 75 1011.1
20260906050943 84 296 0.0 2.0 0.00 0.00 0.00 75 1010.9
20260906050443 84 288 0.0 2.0 0.00 0.00 0.00 74 1010.8
20260906045942 84 297 0.0 3.0 0.00 0.00 0.00 74 1011.0
20260906045441 85 196 2.0 4.0 0.00 0.00 0.00 73 1011.0
20260906044937 85 137 1.0 3.0 0.00 0.00 0.00 73 1011.1
20260906044432 85 159 2.0 3.0 0.00 0.00 0.00 73 1011.1
20260906043927 85 143 1.0 3.0 0.00 0.00 0.00 72 1011.1
20260906043423 85 171 2.0 3.0 0.00 0.00 0.00 72 1011.0
20260906042919 85 184 0.0 4.0 0.00 0.00 0.00 72 1010.7
20260906042418 86 212 2.0 4.0 0.00 0.00 0.00 71 1010.9
20260906041913 86 131 0.0 5.0 0.00 0.00 0.00 71 1010.5
20260906041409 86 198 3.0 5.0 0.00 0.00 0.00 70 1010.7
20260906040909 86 144 0.0 7.0 0.00 0.00 0.00 70 1010.9
20260906040404 86 202 0.0 7.0 0.00 0.00 0.00 69 1010.9
20260906035859 86 177 3.0 9.0 0.00 0.00 0.00 69 1010.9
20260906035355 86 174 3.0 5.0 0.00 0.00 0.00 69 1010.8
20260906034850 87 139 2.0 6.0 0.00 0.00 0.00 68 1010.6
20260906034344 87 243 0.0 5.0 0.00 0.00 0.00 68 1010.8
20260906033840 87 214 0.0 6.0 0.00 0.00 0.00 67 1010.9
20260906033339 87 143 3.0 7.0 0.00 0.00 0.00 67 1010.8
20260906032836 87 170 3.0 9.0 0.00 0.00 0.00 67 1010.8
20260906032332 87 157 4.0 8.0 0.00 0.00 0.00 68 1011.0
20260906031827 87 202 3.0 5.0 0.00 0.00 0.00 68 1010.8
20260906031322 87 181 1.0 5.0 0.00 0.00 0.00 69 1011.0
20260906030821 87 175 1.0 5.0 0.00 0.00 0.00 69 1010.8
20260906030317 87 108 0.0 4.0 0.00 0.00 0.00 68 1010.9
20260906025811 88 177 1.0 5.0 0.00 0.00 0.00 68 1010.9
20260906025306 88 136 4.0 6.0 0.00 0.00 0.00 68 1010.6
20260906024805 88 154 4.0 8.0 0.00 0.00 0.00 67 1010.5
20260906024304 88 151 3.0 7.0 0.00 0.00 0.00 68 1010.4
20260906023759 88 142 3.0 6.0 0.00 0.00 0.00 67 1010.2
20260906023254 88 137 5.0 6.0 0.00 0.00 0.00 67 1010.5
20260906022750 88 151 3.0 9.0 0.00 0.00 0.00 67 1010.2
20260906022245 88 119 3.0 6.0 0.00 0.00 0.00 66 1010.3
20260906021741 89 105 1.0 7.0 0.00 0.00 0.00 66 1010.1
20260906021240 89 69 1.0 5.0 0.00 0.00 0.00 65 1010.0
20260906020735 89 148 1.0 5.0 0.00 0.00 0.00 64 1009.9
20260906020235 89 115 3.0 5.0 0.00 0.00 0.00 63 1010.1
20260906015730 89 111 3.0 11.0 0.00 0.00 0.00 63 1009.7
20260906015228 90 168 2.0 8.0 0.00 0.00 0.00 62 1009.9
20260906014723 90 153 5.0 11.0 0.00 0.00 0.00 61 1009.6
20260906014219 90 101 2.0 8.0 0.00 0.00 0.00 61 1009.6
20260906013715 90 333 0.0 7.0 0.00 0.00 0.00 61 1009.6
20260906013214 90 145 2.0 7.0 0.00 0.00 0.00 61 1009.8
20260906012709 90 146 3.0 12.0 0.00 0.00 0.00 60 1009.5
20260906012204 91 120 3.0 9.0 0.00 0.00 0.00 59 1009.4
20260906011700 91 105 6.0 11.0 0.00 0.00 0.00 58 1009.2
20260906011154 92 101 4.0 11.0 0.00 0.00 0.00 56 1009.3
20260906010649 93 137 4.0 5.0 0.00 0.00 0.00 50 1009.1
20260906010145 94 159 3.0 6.0 0.00 0.00 0.00 50 1009.3
20260906005645 94 183 0.0 4.0 0.00 0.00 0.00 49 1009.1
20260906005144 94 271 0.0 5.0 0.00 0.00 0.00 49 1009.1
20260906004638 94 191 0.0 5.0 0.00 0.00 0.00 49 1009.1
20260906004133 95 23 0.0 5.0 0.00 0.00 0.00 48 1009.0
20260906003628 95 141 2.0 6.0 0.00 0.00 0.00 47 1009.0
20260906003124 95 180 3.0 6.0 0.00 0.00 0.00 47 1008.9
20260906002619 95 139 0.0 5.0 0.00 0.00 0.00 47 1009.0
20260906002114 96 116 5.0 6.0 0.00 0.00 0.00 46 1009.1
20260906001608 96 168 2.0 5.0 0.00 0.00 0.00 46 1009.1
20260906001103 96 149 4.0 9.0 0.00 0.00 0.00 46 1008.9
20260906000559 96 87 6.0 10.0 0.00 0.00 0.00 46 1008.9
20260906000054 97 187 2.0 12.0 0.00 0.00 0.00 45 1008.7
20260905235553 97 148 4.0 14.0 0.00 0.00 0.00 45 1008.6
20260905235049 98 119 8.0 14.0 0.00 0.00 0.00 44 1008.8
20260905234544 98 143 7.0 12.0 0.00 0.00 0.00 44 1008.8
20260905234039 99 193 2.0 11.0 0.00 0.00 0.00 42 1008.5
20260905233539 100 89 7.0 9.0 0.00 0.00 0.00 39 1008.5
20260905233039 100 154 2.0 8.0 0.00 0.00 0.00 39 1008.6
20260905232534 100 155 5.0 7.0 0.00 0.00 0.00 39 1008.7
20260905232030 100 168 2.0 3.0 0.00 0.00 0.00 39 1008.5
20260905231525 99 182 2.0 5.0 0.00 0.00 0.00 39 1008.6
20260905231021 100 134 3.0 7.0 0.00 0.00 0.00 39 1008.5
20260905230520 100 192 1.0 7.0 0.00 0.00 0.00 39 1008.7
20260905230019 100 147 3.0 7.0 0.00 0.00 0.00 39 1008.6
20260905225513 102 111 3.0 6.0 0.00 0.00 0.00 38 1008.5